Weather History for KSJS - April, 2014

Change the Weather History Date:

Monday, April 7, 2014

  Actual Average Record
Temperature  
Mean Temperature 58 °F -  
Max Temperature 68 °F - - ()
Min Temperature 49 °F - - ()
Degree Days  
Heating Degree Days 6    
Growing Degree Days 8 (Base 50)    
Moisture  
Dew Point 48 °F    
Average Humidity 70    
Maximum Humidity 92    
Minimum Humidity 40    
Precipitation  
Precipitation 0.00 in - - ()
Sea Level Pressure  
Sea Level Pressure 29.67 in    
Wind  
Wind Speed 11 mph (South)    
Max Wind Speed 24 mph    
Max Gust Speed 37 mph    
Visibility 10 miles    
Events      
Averages and records for this station are not official NWS values.
T = Trace of Precipitation, MM = Missing Value Source: NWS Daily Summary

Daily Weather History Graph

Daily Weather History Graph

Search for Another Location

Airport or City:

Trip Planner

Search our weather history database for the weather conditions in past years. The results will help you decide how hot, cold, wet, or windy it might be!

Date:

Astronomy

Apr. 07, 2014 Rise Set
Actual Time 7:06 AM EDT 7:58 PM EDT
Civil Twilight 6:40 AM EDT 8:25 PM EDT
Nautical Twilight 6:08 AM EDT 8:57 PM EDT
Astronomical Twilight 5:36 AM EDT 9:30 PM EDT
Moon 1:04 PM EDT (4/7) 2:32 AM EDT (4/7)
Length of Visible Light 13h 45m
Length of Day
12h 51m
First Quarter, 53% of the Moon is Illuminated
Apr 7
First Quarter
Apr 15
Full
Apr 22
Last Quarter
Apr 29
New
May 6
First Quarter

Hourly Weather History & Observations

Time (EDT) Temp. Dew Point Humidity Pressure Visibility Wind Dir Wind Speed Gust Speed Precip Events Conditions
12:15 AM 61.7 °F 36.9 °F 40% 29.93 in 10.0 mi SSE 11.5 mph - N/A   Overcast
12:35 AM 61.2 °F 36.9 °F 40% 29.93 in 10.0 mi SSE 10.4 mph - N/A   Overcast
1:15 AM 60.8 °F 37.2 °F 42% 29.93 in 10.0 mi SSE 11.5 mph 18.4 mph N/A   Overcast
1:35 AM 60.3 °F 37.4 °F 43% 29.93 in 10.0 mi SSE 9.2 mph - N/A   Overcast
1:55 AM 60.1 °F 37.6 °F 43% 29.93 in 10.0 mi South 15.0 mph - N/A   Overcast
2:15 AM 59.5 °F 38.3 °F 45% 29.92 in 10.0 mi SSE 17.3 mph 24.2 mph N/A   Overcast
2:35 AM 57.0 °F 41.7 °F 57% 29.92 in 10.0 mi South 16.1 mph 21.9 mph N/A   Overcast
2:55 AM 55.2 °F 42.8 °F 63% 29.90 in 10.0 mi SSE 15.0 mph 23.0 mph N/A   Overcast
3:15 AM 54.0 °F 43.5 °F 68% 29.88 in 10.0 mi SSE 11.5 mph 17.3 mph N/A   Overcast
3:35 AM 52.7 °F 44.4 °F 73% 29.88 in 10.0 mi SE 12.7 mph 16.1 mph N/A   Overcast
3:55 AM 52.3 °F 43.9 °F 73% 29.86 in 10.0 mi SE 10.4 mph - N/A   Overcast
4:15 AM 52.2 °F 44.6 °F 75% 29.87 in 10.0 mi SSE 9.2 mph - N/A   Overcast
4:35 AM 51.3 °F 45.5 °F 81% 29.84 in 10.0 mi SE 8.1 mph - N/A   Overcast
4:55 AM 50.9 °F 45.5 °F 82% 29.83 in 10.0 mi SE 9.2 mph - N/A   Overcast
5:15 AM 51.3 °F 45.1 °F 80% 29.86 in 10.0 mi SSE 6.9 mph - N/A   Overcast
5:35 AM 51.3 °F 45.5 °F 81% 29.85 in 10.0 mi SSE 8.1 mph - N/A   Overcast
5:55 AM 51.3 °F 45.1 °F 80% 29.82 in 10.0 mi SE 10.4 mph - N/A   Overcast
6:15 AM 50.7 °F 45.7 °F 83% 29.82 in 10.0 mi SE 8.1 mph - N/A   Overcast
6:35 AM 50.5 °F 45.9 °F 84% 29.83 in 10.0 mi East 3.5 mph - N/A   Overcast
6:55 AM 50.2 °F 46.4 °F 87% 29.81 in 10.0 mi ENE 5.8 mph - N/A   Overcast
7:15 AM 50.0 °F 46.4 °F 87% 29.82 in 10.0 mi ESE 9.2 mph - N/A   Overcast
7:35 AM 49.5 °F 46.4 °F 89% 29.80 in 10.0 mi ESE 9.2 mph - N/A   Overcast
7:55 AM 49.3 °F 46.8 °F 91% 29.79 in 10.0 mi ESE 6.9 mph - N/A   Overcast
8:15 AM 49.1 °F 46.9 °F 92% 29.79 in 10.0 mi SE 4.6 mph - N/A   Overcast
8:35 AM 49.6 °F 47.3 °F 92% 29.77 in 10.0 mi East 4.6 mph - N/A   Overcast
8:55 AM 50.0 °F 47.5 °F 91% 29.76 in 10.0 mi SE 6.9 mph - N/A   Overcast
9:15 AM 50.9 °F 48.0 °F 90% 29.73 in 10.0 mi ESE 6.9 mph - N/A   Overcast
9:35 AM 51.4 °F 48.2 °F 89% 29.75 in 10.0 mi Calm Calm - N/A   Mostly Cloudy
9:55 AM 52.7 °F 48.9 °F 87% 29.73 in 10.0 mi SE 5.8 mph - N/A   Overcast
10:15 AM 52.9 °F 49.1 °F 87% 29.72 in 10.0 mi SE 8.1 mph - N/A   Overcast
10:35 AM 54.3 °F 49.8 °F 85% 29.71 in 10.0 mi SE 5.8 mph - N/A   Overcast
10:55 AM 55.9 °F 50.2 °F 81% 29.69 in 10.0 mi SSE 6.9 mph - N/A   Mostly Cloudy
11:15 AM 56.8 °F 50.4 °F 79% 29.68 in 10.0 mi SSE 10.4 mph - N/A   Clear
11:35 AM 57.7 °F 50.5 °F 77% 29.68 in 10.0 mi SSE 11.5 mph - N/A   Clear
11:55 AM 58.3 °F 50.7 °F 76% 29.65 in 10.0 mi SSE 8.1 mph - N/A   Mostly Cloudy
12:15 PM 59.2 °F 50.9 °F 74% 29.64 in 10.0 mi SSE 8.1 mph 18.4 mph N/A   Overcast
12:35 PM 60.4 °F 51.1 °F 71% 29.63 in 10.0 mi SE 9.2 mph - N/A   Scattered Clouds
12:55 PM 61.7 °F 51.1 °F 68% 29.62 in 10.0 mi SSE 15.0 mph 18.4 mph N/A   Scattered Clouds
1:15 PM 62.8 °F 50.5 °F 64% 29.61 in 10.0 mi South 12.7 mph 21.9 mph N/A   Scattered Clouds
1:35 PM 62.2 °F 50.0 °F 64% 29.60 in 10.0 mi SSE 9.2 mph - N/A   Mostly Cloudy
1:55 PM 63.5 °F 50.4 °F 62% 29.59 in 10.0 mi South 9.2 mph - N/A   Overcast
2:15 PM 64.9 °F 50.7 °F 60% 29.57 in 10.0 mi SSE 11.5 mph 18.4 mph N/A   Overcast
2:35 PM 66.2 °F 50.4 °F 57% 29.56 in 10.0 mi South 13.8 mph 20.7 mph N/A   Overcast
2:55 PM 66.2 °F 50.2 °F 56% 29.55 in 10.0 mi South 16.1 mph 24.2 mph N/A   Overcast
3:15 PM 66.2 °F 50.2 °F 56% 29.55 in 10.0 mi South 11.5 mph 23.0 mph N/A   Overcast
3:35 PM 66.7 °F 50.4 °F 56% 29.52 in 10.0 mi South 13.8 mph - N/A   Overcast
3:55 PM 67.1 °F 50.7 °F 56% 29.52 in 10.0 mi South 12.7 mph - N/A   Overcast
4:15 PM 67.1 °F 50.7 °F 56% 29.51 in 10.0 mi South 10.4 mph 20.7 mph N/A   Overcast
4:35 PM 67.5 °F 51.1 °F 56% 29.49 in 10.0 mi South 10.4 mph 17.3 mph N/A   Overcast
4:55 PM 66.7 °F 51.8 °F 59% 29.49 in 10.0 mi South 8.1 mph - N/A   Overcast
5:15 PM 67.1 °F 51.6 °F 57% 29.48 in 10.0 mi South 9.2 mph - N/A   Overcast
5:35 PM 68.0 °F 51.8 °F 56% 29.47 in 10.0 mi South 9.2 mph 17.3 mph N/A   Overcast
5:55 PM 68.0 °F 52.0 °F 56% 29.46 in 10.0 mi South 12.7 mph 17.3 mph N/A   Overcast
6:15 PM 68.0 °F 52.5 °F 58% 29.46 in 10.0 mi South 13.8 mph 17.3 mph N/A   Overcast
6:35 PM 64.8 °F 55.0 °F 71% 29.47 in 7.0 mi WSW 6.9 mph 17.3 mph N/A   Overcast
6:55 PM 62.8 °F 56.5 °F 80% 29.47 in 10.0 mi SW 9.2 mph - N/A   Overcast
7:15 PM 63.0 °F 57.4 °F 82% 29.47 in 10.0 mi SW 6.9 mph - N/A   Overcast
7:35 PM 63.7 °F 57.6 °F 80% 29.47 in 10.0 mi SW 5.8 mph - N/A   Overcast
7:55 PM 63.7 °F 57.2 °F 79% 29.47 in 10.0 mi WSW 6.9 mph - N/A   Overcast
8:15 PM 64.2 °F 56.7 °F 76% 29.47 in 10.0 mi WSW 8.1 mph 16.1 mph N/A   Overcast
8:35 PM 64.4 °F 55.6 °F 73% 29.47 in 10.0 mi SW 15.0 mph 27.6 mph N/A   Scattered Clouds
8:55 PM 64.4 °F 54.7 °F 71% 29.47 in 10.0 mi SW 11.5 mph 23.0 mph N/A   Clear
9:15 PM 64.6 °F 53.6 °F 68% 29.48 in 10.0 mi SW 13.8 mph 20.7 mph N/A   Clear
9:35 PM 64.8 °F 52.3 °F 64% 29.49 in 10.0 mi WSW 12.7 mph 19.6 mph N/A   Clear
9:55 PM 65.3 °F 50.5 °F 59% 29.50 in 10.0 mi WSW 10.4 mph 24.2 mph N/A   Scattered Clouds
10:15 PM 64.8 °F 49.8 °F 58% 29.50 in 10.0 mi WSW 20.7 mph 27.6 mph N/A   Scattered Clouds
10:35 PM 64.6 °F 49.6 °F 58% 29.52 in 10.0 mi West 24.2 mph 36.8 mph N/A   Mostly Cloudy
10:55 PM 57.4 °F 50.7 °F 78% 29.55 in 10.0 mi WSW 17.3 mph 26.5 mph N/A   Overcast
11:15 PM 57.7 °F 46.8 °F 67% 29.55 in 10.0 mi WSW 20.7 mph 33.4 mph N/A   Overcast
11:35 PM 57.4 °F 46.0 °F 66% 29.56 in 10.0 mi WSW 21.9 mph 32.2 mph N/A   Overcast
11:55 PM 56.3 °F 45.5 °F 67% 29.58 in 10.0 mi WSW 18.4 mph 24.2 mph N/A   Mostly Cloudy